Погода в Котляревской

Россия / Кабардино-Балкарская Республика     43°34′30″N   44°03′30″E
темп.,
°C
ветер,
м/с
пор.,
м/с
влажн.,
%
обл.,
%
осадки,
мм/ч
давл.,
гПа
погр.,
м
15 мая, сб
сб1500:00+18ю11785 0.0 101111
03:00+17зюз11663 0.0 101111
06:00+18ююз225814 0.0 101225
09:00+25с224544 0.0 1012348
12:00+28с33475 0.0 10121243
15:00+29ссз335058 0.0 10111761
18:00+23з4677100 1.4 1012116
21:00+19юз3372100 2.1 101229
16 мая, вс
вс1600:00+18ююз2277100 0.0 101117
03:00+17юз227666 0.0 101012
06:00+18ю11729 0.0 101044
09:00+23всв22615 0.0 1009521
12:00+27св33536 0.0 10071206
15:00+29св33480 0.0 10051551
18:00+26св35645 0.0 1005149
21:00+20юз117581 0.4 100612
17 мая, пн
пн1700:00+19юз1180100 0.1 100511
03:00+17зсз1177100 0.1 100511
06:00+18ююв117478 0.0 100525
09:00+24всв22460 0.0 1005395
12:00+28ссв43420 0.0 1004823
15:00+29с334186 0.0 10041130
18:00+26сз3557100 0.0 1005106
21:00+18сз3882100 0.7 1009223
18 мая, вт
вт1800:00+17юз1286100 0.2 100915
03:00+17ююз2289100 1.0 101133
06:00+16зсз3989100 0.1 1012451
09:00+17сз1585100 0.6 1013582
12:00+19юв2272100 0.4 1014703
15:00+22ю216024 0.6 10141204
18:00+19зсз3581100 2.4 1015156
21:00+16ю228491 2.7 101532
19 мая, ср
ср1900:00+15ююз228766 0.0 101512
03:00+13зюз11850 0.0 101611
06:00+15ю23840 0.0 101688
09:00+21в22645 0.0 1016707
12:00+25всв34514 0.0 10141532
15:00+26в554641 0.0 10131798
18:00+23вюв375952 0.0 1013167
21:00+19ю226599 0.0 101323